G4GJR Weather Reports


time (UTC)temp
C
wind
direction
speed
KPH
gust
KPH
rain 1hr
cm
rain 24hr
cm
rain mn
cm
humidity
%
barometer
mb
20260508033004 7 113 0.0 1.6 0.00 0.00 0.00 90 1016.7
20260508031504 7 113 0.0 1.6 0.00 0.00 0.00 90 1016.8
20260508030004 7 113 0.0 0.0 0.00 0.00 0.00 89 1016.9
20260508023004 8 113 0.0 3.2 0.00 0.00 0.00 88 1016.8
20260508021504 8 124 0.0 3.2 0.00 0.00 0.00 88 1016.8
20260508020004 8 155 1.6 3.2 0.00 0.00 0.00 88 1016.8
20260508014504 9 144 1.6 4.8 0.00 0.00 0.00 87 1016.7
20260508013004 9 156 3.2 4.8 0.00 0.00 0.00 87 1016.7
20260508011503 9 189 3.2 8.0 0.00 0.00 0.00 86 1016.7
20260508010004 10 162 3.2 8.0 0.00 0.00 0.00 86 1016.6
20260508004503 10 183 3.2 8.0 0.00 0.00 0.00 86 1016.7
20260508003004 10 126 1.6 3.2 0.00 0.00 0.00 85 1016.7
20260508001504 10 137 1.6 3.2 0.00 0.00 0.00 84 1016.7
20260507234505 10 159 1.6 4.8 0.00 0.00 0.00 84 1016.8
20260507233004 10 169 1.6 4.8 0.00 0.00 0.00 83 1016.8
20260507231503 10 146 1.6 8.0 0.00 0.00 0.00 82 1016.9
20260507230005 11 147 3.2 8.0 0.00 0.00 0.00 82 1016.9
20260507224504 11 175 3.2 9.7 0.00 0.00 0.00 82 1017.1
20260507223004 11 183 3.2 8.0 0.00 0.00 0.00 81 1017.1
20260507221504 11 186 3.2 8.0 0.00 0.00 0.00 80 1017.1
20260507220004 11 158 3.2 11.3 0.00 0.00 0.00 80 1017.2
20260507214503 11 163 4.8 9.7 0.00 0.00 0.00 80 1017.1
20260507211504 10 161 3.2 11.3 0.00 0.00 0.00 78 1017.0
20260507210004 10 170 4.8 9.7 0.00 0.00 0.00 77 1016.9
20260507204504 10 148 1.6 3.2 0.00 0.00 0.00 77 1016.8
20260507203004 10 177 1.6 4.8 0.00 0.00 0.00 76 1016.7
20260507201503 11 165 1.6 4.8 0.00 0.00 0.00 75 1016.5
20260507200003 11 122 1.6 8.0 0.00 0.00 0.00 74 1016.3
20260507193004 12 135 1.6 4.8 0.00 0.00 0.00 71 1016.1
20260507191503 12 181 1.6 9.7 0.00 0.00 0.00 70 1016.0
20260507190005 12 140 3.2 11.3 0.00 0.00 0.00 68 1015.9
20260507184504 13 150 3.2 11.3 0.00 0.00 0.00 66 1015.9
20260507183004 14 156 4.8 14.5 0.00 0.00 0.00 62 1015.7
20260507181504 15 161 6.4 19.3 0.00 0.00 0.00 61 1015.6
20260507180004 14 177 3.2 11.3 0.00 0.00 0.00 64 1015.5
20260507174504 14 145 3.2 12.9 0.00 0.00 0.00 64 1015.5
20260507173004 14 136 4.8 16.1 0.00 0.00 0.00 63 1015.4
20260507171503 15 158 3.2 12.9 0.00 0.00 0.00 58 1015.5
20260507170004 15 133 4.8 11.3 0.00 0.00 0.00 56 1015.4
20260507164504 15 168 4.8 12.9 0.00 0.00 0.00 56 1015.5
20260507161504 16 158 4.8 11.3 0.00 0.00 0.00 54 1015.5
20260507160003 16 163 3.2 14.5 0.00 0.00 0.00 51 1015.6
20260507154504 16 104 1.6 12.9 0.00 0.00 0.00 56 1015.6
20260507153004 16 146 3.2 14.5 0.00 0.00 0.00 55 1015.7
20260507144503 16 148 4.8 12.9 0.00 0.00 0.00 56 1015.9
20260507143004 15 183 4.8 14.5 0.00 0.00 0.00 57 1016.0
20260507141503 16 91 3.2 8.0 0.00 0.00 0.00 56 1016.1
20260507140004 16 138 3.2 12.9 0.00 0.00 0.00 58 1016.2
20260507134504 15 57 3.2 8.0 0.00 0.00 0.00 59 1016.2
20260507133004 15 189 3.2 9.7 0.00 0.00 0.00 59 1016.3
20260507131503 15 143 3.2 9.7 0.00 0.00 0.00 59 1016.4
20260507130004 14 64 0.0 3.2 0.00 0.00 0.00 61 1016.4
20260507124503 14 151 1.6 9.7 0.00 0.00 0.00 60 1016.5
20260507123004 15 123 3.2 11.3 0.00 0.00 0.00 60 1016.5
20260507121504 14 82 3.2 8.0 0.00 0.00 0.00 60 1016.6
20260507120005 15 91 3.2 11.3 0.00 0.00 0.00 63 1016.6
20260507114503 14 47 3.2 9.7 0.00 0.00 0.00 64 1016.6
20260507113004 13 155 1.6 8.0 0.00 0.00 0.00 63 1016.8
20260507111504 13 181 3.2 9.7 0.00 0.00 0.00 64 1016.8
20260507110004 12 132 4.8 11.3 0.00 0.00 0.00 66 1016.9
20260507104505 11 166 3.2 9.7 0.00 0.00 0.00 70 1017.0
20260507103003 11 168 1.6 8.0 0.00 0.00 0.00 71 1017.0
20260507101503 11 231 0.0 3.2 0.00 0.00 0.00 72 1017.1
20260507100005 11 265 3.2 12.9 0.00 0.00 0.00 71 1017.1
20260507093004 13 157 4.8 9.7 0.00 0.00 0.00 69 1017.0
20260507091504 12 153 4.8 11.3 0.00 0.00 0.00 71 1017.1
20260507084503 12 157 6.4 11.3 0.00 0.00 0.00 76 1017.1
20260507081504 10 174 3.2 9.7 0.00 0.00 0.00 82 1017.1
20260507080004 10 172 3.2 9.7 0.00 0.00 0.00 82 1017.1
20260507074503 10 176 3.2 8.0 0.00 0.00 0.00 82 1017.0
20260507073004 10 134 1.6 8.0 0.00 0.00 0.00 84 1016.9
20260507071504 9 107 0.0 3.2 0.00 0.00 0.00 88 1016.9
20260507070009 8 152 1.6 1.6 0.00 0.00 0.00 89 1016.8
20260507064504 8 81 1.6 3.2 0.00 0.00 0.00 91 1016.8
20260507063004 7 75 0.0 1.6 0.00 0.00 0.00 92 1016.6
20260507061503 7 29 1.6 3.2 0.00 0.00 0.00 92 1016.5
20260507060004 6 55 0.0 1.6 0.00 0.00 0.00 92 1016.4
20260507054503 6 24 0.0 1.6 0.00 0.00 0.00 92 1016.4
20260507053005 6 32 0.0 1.6 0.00 0.00 0.00 92 1016.3
20260507051504 6 26 0.0 3.2 0.00 0.00 0.00 92 1016.3
20260507050005 6 63 1.6 1.6 0.00 0.00 0.00 92 1016.2
20260507044503 6 13 0.0 1.6 0.00 0.00 0.00 91 1016.1
20260507043004 6 49 0.0 3.2 0.00 0.00 0.00 91 1016.1
20260507040004 7 91 0.0 3.2 0.00 0.00 0.00 91 1016.1
20260507034503 7 79 1.6 4.8 0.00 0.00 0.00 91 1016.1